Regional Weather Roundup
Issued by NWS Pendleton, OR

Home | Current Version | Previous Version | Text Only | Print | Product List | Glossary On
Versions: 1 2 3 4 5 6 7 8 9 10 11 12 13 14 15 16 17 18 19 20 21 22 23 24 25 26 27 28 29 30 31 32 33 34 35 36 37 38 39 40 41 42 43 44 45 46 47 48 49 50
436
ASUS46 KPDT 142325
RWRPDT
PENDLETON REGIONAL WEATHER ROUNDUP
NATIONAL WEATHER SERVICE PENDLETON OREGON
300 PM PST THU DEC 14 2017

NOTE: FAIR INDICATES FEW OR NO CLOUDS BELOW 12,000 FEET WITH NO
SIGNIFICANT WEATHER AND/OR OBSTRUCTIONS TO VISIBILITY.

# INDICATES UNOFFICIAL STATION AND DATA

WAZ520-150010-
EAST SLOPES OF WASHINGTON CASCADES

CITY            SKY/WX      TMP DP  RH  WIND    PRES   REMARKS
#BULLFROG       N/A         31  26  81  SE1     N/A
#CLE ELUM HS    N/A         31  25  78  CALM    30.34F
#CLE ELUM LAKE  N/A         26  25  96  CALM    30.27S
#EASTON DOT     N/A         28  26  92  N2      N/A
#ELK HTS DOT    N/A         29  29  100 E3      N/A
#GLENWOOD       N/A         29  27  92  CALM    30.52S
#NELSON 3SW     N/A         26  25  96  CALM    30.73F
#NILE           N/A         30  26  85  CALM    29.76R
#TEANAWAY 4NE   N/A         31  27  85  CALM    N/A
#TROUT LAKE 1NE N/A         29  26  88  CALM    30.53S
#TROUT LAKE 1E  N/A         29  26  88  CALM    30.44F
$$

WAZ521-150010-
SIMCOE HIGHLANDS

CITY            SKY/WX      TMP DP  RH  WIND    PRES   REMARKS
#BICKLETON HS   N/A         N/A N/A N/A CALM    30.48R
#CENTERVILLE 1SWN/A         27  23  85  CALM    30.50S
#GOLDENDALE 1NE N/A         31  18  58  E5      N/A
#GOLDENDALE 4W  N/A         29  17  60  S5      30.47S
#GOODNOE HILLS  N/A         30  24  78  E3      30.38F
#LYLE 6NE       N/A         29  26  88  NE1     30.54S
#PITT 4SE       N/A         24  23  96  CALM    30.58R
$$

WAZ026-150010-
KITTITAS VALLEY

CITY            SKY/WX      TMP DP  RH  WIND    PRES   REMARKS
ELLENSBURG AP   CLOUDY      34  27  75  S5      30.44S
#ELLENSBURG CWU N/A         32  28  85  SE2     30.46F
#ELLENSBURG 3NE N/A         31  28  88  CALM    28.49F
#ELLENSBURG 1E  N/A         32  28  85  CALM    30.58R
#KITTITAS 3S    N/A         32  28  85  CALM    30.51R
#MANASTASH RDG  N/A         28  27  96  CALM    N/A
#ROCKY CYN DOT  N/A         31  26  81  E6      N/A
#RYEGRASS DOT   N/A         28  26  92  SE2     N/A
$$

WAZ027-150010-
YAKIMA VALLEY

CITY            SKY/WX      TMP DP  RH  WIND    PRES   REMARKS
SUNNYSIDE AP    CLOUDY      32  28  85  CALM    30.50F
YAKIMA AIRPORT  CLOUDY      36  28  72  S5      30.48F
YAKIMA-VAGABOND CLOUDY      32  28  85  CALM    30.45R
#DONALD 2NE     N/A         33  18  53  S3      29.33R
#GRANDVIEW      N/A         33  26  75  CALM    30.43F
#MABTON         N/A         34  30  85  CALM    30.50F
#MOXEE 2E       N/A         30  N/A N/A CALM    30.62F
#NACHES 2SW     N/A         31  28  88  S1      30.44S
#OUTLOOK DOT    N/A         34  30  85  CALM    30.47F
#PARKER DOT     N/A         33  29  85  CALM    30.50R
#TERRACE HTS    N/A         32  29  89  CALM    30.51R
#TOPPENISH      N/A         34  29  82  CALM    30.46F
#I82 S UMTANUM RN/A         29  28  96  W1      N/A
#UNION GAP DOT  N/A         34  29  82  S5      30.53S
#W YAKIMA       N/A         31  27  85  SW2     30.54S
#WHITE SWAN 5E  N/A         34  29  82  CALM    30.55F
#WILEY CITY 3W  N/A         32  24  72  CALM    30.43S
#ZILLAH DOT     N/A         34  28  78  W2      N/A
$$

WAZ028-150010-
LOWER COLUMBIA BASIN...WASHINGTON

CITY            SKY/WX      TMP DP  RH  WIND    PRES   REMARKS
HANFORD         CLOUDY      34  29  82  E3      30.49F
PASCO           CLOUDY      34  29  82  E6      30.54F
PROSSER AWOS    N/A         34  30  85  CALM    30.54F
RICHLAND AWOS   CLOUDY      36  31  82  E6      30.53F
#BENTON CITY    N/A         33  30  89  CALM    30.45F
#CONNELL 5N     N/A         30  28  92  CALM    30.55F
#CONNELL 5NW    N/A         31  29  92  CALM    30.50F
#ELTOPIA 6NW    N/A         31  29  92  CALM    29.46F
#KAHLOTUS       N/A         30  28  92  CALM    30.54F
#KENNEWICK 3S   N/A         32  29  89  CALM    30.56F
#PATERSON       N/A         32  28  85  CALM    30.53F
#PROSSER DOT    N/A         34  30  85  CALM    30.52F
#SAGEMOOR 2W    N/A         31  28  88  E1      30.42F
#TOUCHET 2S     N/A         32  27  82  E1      30.53F
#WEST PASCO     N/A         36  30  79  CALM    30.57F
$$

WAZ029-150010-
FOOTHILLS OF THE BLUES...WASHINGTON

CITY            SKY/WX      TMP DP  RH  WIND    PRES   REMARKS
WALLA WALLA AP  CLOUDY      31  25  78  CALM    30.49S
#CLYDE 6NW      N/A         29  28  96  E5      30.53F
#DELANEY DOT    N/A         32  28  85  W2      30.52
#LOWDEN 2SE     N/A         32  27  82  CALM    30.49F
#PLEASANT VIEW 1N/A         28  27  96  N1      30.59F
#PRESCOTT       N/A         33  29  85  CALM    30.55S
#WHITMAN COLLEGEN/A         31  26  81  CALM    30.52S
#WAITSBURG 5S   N/A         28  27  96  N1      30.66R
#WAITSBURG 6SSE N/A         29  25  85  N3      30.51S
#WALLA WALLA 5E N/A         30  27  88  N5      N/A
#WHITMAN MISSIONN/A         33  28  82  CALM    30.57S
$$

WAZ030-150010-
BLUE MOUNTAINS...WASHINGTON

CITY            SKY/WX      TMP DP  RH  WIND    PRES   REMARKS
#DIXIE 5SE      N/A         24  23  96  CALM    30.30R
$$

ORZ009-041-WAZ024-150010-
COLUMBIA RIVER GORGE

CITY            SKY/WX      TMP DP  RH  WIND    PRES   REMARKS
HOOD RIVER AP   CLOUDY      32  27  82  E8      30.51S HAZE
THE DALLES AP   CLOUDY      36  26  67  SE5     30.53S
#ARLINGTON AIRPON/A         31  27  85  SE6     30.55F
#ARLINGTON HS   N/A         34  25  69  CALM    30.44F
#CELILO DOT     N/A         36  25  64  CALM    N/A
#LYLE           N/A         36  29  75  CALM    30.55S
#MARYHILL       N/A         32  26  78  N3      N/A
#MURDOCK        N/A         35  29  78  SE1     30.51S
#RUFUS DOT      N/A         35  N/A N/A SE8     N/A
#SMITHVILLE     N/A         35  29  78  N3      30.49S

$$

ORZ510-150010-
NORTH CENTRAL OREGON

CITY            SKY/WX      TMP DP  RH  WIND    PRES   REMARKS
#ANTELOPE       N/A         26  22  85  CALM    30.42F
#CHENOWITH 1W   N/A         26  25  96  SE9     N/A
#COW CYN RST AREN/A         24  N/A N/A CALM    N/A
#DUFUR          N/A         29  24  81  CALM    30.50S
#DUFUR 9E       N/A         24  23  96  CALM    30.61S
#GRASS VALLEY 1SN/A         25  24  96  CALM    30.38F
#KENT DOT       N/A         24  19  81  CALM    N/A
#MAUPIN SCHOOL  N/A         31  23  72  CALM    30.52F
#MORO SCHOOL    N/A         27  27  100 E1      30.41F
#SHANIKO 5WSW   N/A         24  N/A N/A CALM    N/A
#SHANIKO 4NW    N/A         22  21  96  N2      30.33S
#TYGH VALLEY 2NEN/A         30  24  78  CALM    30.52F
#WAPANITIA AIRPON/A         27  24  88  CALM    30.55F
#WASCO DOT      N/A         32  26  78  E8      N/A
#WASCO 5NE      N/A         30  23  75  E5      30.53F
$$

ORZ511-150010-
CENTRAL OREGON

CITY            SKY/WX      TMP DP  RH  WIND    PRES   REMARKS
BEND AIRPORT    PTCLDY      30  23  75  CALM    30.33F
PRINEVILLE AP   PTCLDY      25  23  92  NW7     30.34F
REDMOND AIRPORT MOCLDY      25  21  84  VRB3    30.34F FOG
#ASHWOOD SCHOOL N/A         27  23  85  CALM    30.32F
#BEND 1SW       N/A         32  24  72  CALM    N/A
#BEND-AWBREY    N/A         29  25  85  CALM    30.53F
#BEND-KIM LN    N/A         26  23  88  N2      30.49S
#CULVER         N/A         22  20  92  CALM    30.40F
#CULVER 8W      N/A         25  17  71  CALM    30.47F
#LAKE BILLY CHINN/A         24  N/A N/A CALM    30.48S
#MADRAS 4S      N/A         25  -9  21  CALM    30.46F
#POWELL BUTTE   N/A         23  19  84  CALM    30.24F
#PRINEVILLE     N/A         29  23  78  CALM    30.60F
#PRINEVILLE 3N  N/A         26  22  85  W1      30.51F
#WARM SPRINGS   N/A         28  23  81  CALM    30.36S

$$


ORZ509-150010-
EAST SLOPES OF OREGON CASCADES

CITY            SKY/WX      TMP DP  RH  WIND    PRES   REMARKS
SISTERS AWOS    N/A         25  21  84  CALM    N/A
#BLUE BOX PASS  N/A         27  N/A N/A CALM    N/A
#CAMP SHERMAN   N/A         29  20  69  CALM    30.55F
#LA PINE DOT    N/A         45  15  29  SW2     N/A
#LA PINE 4NW    N/A         47  25  42  CALM    30.51F
#LAVA BUTTE DOT N/A         42  19  39  SE3     N/A
#SISTERS ODOT   N/A         26  22  85  CALM    N/A
#SISTERS 3N     N/A         25  18  74  CALM    30.32S
#SUNRIVER       N/A         44  25  47  S1      30.32F
#TUMALO 3W      N/A         25  23  92  CALM    30.42F
#WANOGA BUTTE D N/A         45  18  33  W6      N/A

$$

ORZ044-150010-
LOWER COLUMBIA BASIN...OREGON

CITY            SKY/WX      TMP DP  RH  WIND    PRES   REMARKS
HERMISTON       CLOUDY      32  29  89  CALM    30.52S
#BOARDMAN SCHOOLN/A         34  29  82  SW1     30.52F
#BOARDMAN 8SW   N/A         33  29  85  W3      30.54F
#ECHO 8SW       N/A         32  29  89  CALM    30.52F
#I-84 EX 198 DOTN/A         30  26  85  E2      N/A
#IONE SCHOOL    N/A         30  15  53  CALM    30.55F
#UMATILLA       N/A         34  28  78  CALM    30.48F
$$

ORZ507-150010-
NORTHERN FOOTHILLS OF THE BLUES

CITY            SKY/WX      TMP DP  RH  WIND    PRES   REMARKS
PENDLETON AIRPT CLOUDY      29  24  81  CALM    30.46S
#ADAMS 3WNW     N/A         28  26  92  CALM    30.55S
#ATHENA         N/A         27  26  96  CALM    30.59R
#CAYUSE         N/A         28  26  92  CALM    30.54F
#HELIX SCHOOL   N/A         27  25  92  N1      30.54F
#HELIX 3N       N/A         26  25  96  CALM    30.43S
#HOLDMAN 5SE    N/A         29  26  88  CALM    30.44F
#HOLDMAN 6E     N/A         27  25  92  N1      30.35S
#M-F GROVE ELEM N/A         30  24  78  CALM    30.46F
#M-FREEWATER 5SEN/A         29  25  85  CALM    30.46S
#PENDLETON DNTN N/A         32  23  69  CALM    30.45S
#PDT AQUATIC CTRN/A         30  24  78  CALM    30.44F
#PDT SUNRIDGE   N/A         30  25  81  CALM    30.50F
#PENDLETON 6SE  N/A         28  25  88  CALM    30.51F
#PENDLETON 7NW  N/A         30  24  78  CALM    30.57S
#PILOT ROCK 1S  N/A         28  20  71  CALM    30.44F
#PILOT ROCK     N/A         29  24  81  CALM    30.45S
#TUTUILLA       N/A         27  23  85  CALM    30.53S
#UMAPINE 2E     N/A         32  28  85  CALM    30.49S
#WESTON SCHOOL  N/A         26  23  88  CALM    30.37S

$$

ORZ508-150010-
SOUTHERN FOOTHILLS OF THE BLUES

CITY            SKY/WX      TMP DP  RH  WIND    PRES   REMARKS
LEXINGTON       CLOUDY      28  27  96  E6      30.48F
#AJAX           N/A         25  18  74  N1      30.53F
#CONDON 5W      N/A         22  19  88  CALM    30.31F
#FOSSIL SCHOOL  N/A         26  24  92  CALM    30.28F
#HEPPNER EOC    N/A         26  23  88  NE3     30.48F
#HEPPNER 4NE    N/A         23  22  96  CALM    30.55F
#LEXINGTON 2SE  N/A         29  24  81  CALM    30.42F
#MIKKALO        N/A         28  22  78  E8      30.54F
#OLEX 4N        N/A         30  26  85  E7      30.45F
#RUGGS 5NE      N/A         25  25  100 CALM    30.52F
#RUGGS 2SW      N/A         23  22  96  CALM    30.58F

$$

ORZ502-503-150010-
BLUE MOUNTAINS

CITY            SKY/WX      TMP DP  RH  WIND    PRES   REMARKS
MEACHAM         CLOUDY      32  26  78  CALM    30.32S
#BATTLE MTN DOT N/A         24  20  84  N1      N/A
#GRANITE        N/A         36  18  47  S3      30.50F
#LADD CYN SMT   N/A         25  24  96  SE23G30 N/A    WCI 10
#LADD CREEK ODOTN/A         29  24  81  SW8     N/A
#LONG CREEK HS  N/A         37  31  79  CALM    30.30F
#N POWDER DOT   N/A         27  25  92  SW8     N/A
#PIKES PEAK     N/A         22  19  88  CALM    27.99S
#SUMMERVILLE 5NWN/A         30  26  85  CALM    30.43F
#TOLLGATE       N/A         32  25  75  CALM    30.30F
#TROY SCHOOL    N/A         38  30  73  CALM    30.37F
#UKIAH          N/A         36  27  69  CALM    30.42F
#WESTON 4E      N/A         23  22  96  CALM    30.53R
$$

ORZ505-150010-
JOHN DAY BASIN

CITY            SKY/WX      TMP DP  RH  WIND    PRES   REMARKS
JOHN DAY        MOCLDY      43  27  53  E7      30.31F
#ANTELOPE 9ESE  N/A         31  24  75  CALM    N/A
#DAYVILLE SCHOOLN/A         30  21  69  CALM    30.29F
#MITCHELL 8NW   N/A         24  22  92  CALM    30.60S
#MONUMENT HS    N/A         34  23  64  CALM    30.32F
#MT. VERNON 5SE N/A         45  28  51  E6      30.25F
#SPRAY SCHOOL   N/A         34  N/A N/A CALM    N/A
$$

ORZ506-150010-
OCHOCO AND JOHN DAY HIGHLANDS

CITY            SKY/WX      TMP DP  RH  WIND    PRES   REMARKS
#HORSE RIDGE DO N/A         48  22  35  E8      N/A
#IZEE 6NW       N/A         42  28  57  E3      N/A
#PAULINA ODOT   N/A         43  22  43  CALM    N/A
#PINE MTN OBS   N/A         44  21  40  S13     N/A    WCI 38
#PRAIRIE CITY   N/A         43  26  51  CALM    30.47F
#SENECA         N/A         37  N/A N/A N1      N/A
#SENECA 9NW     N/A         38  28  67  CALM    30.53S
$$

ORZ049-150010-
GRANDE RONDE VALLEY

CITY            SKY/WX      TMP DP  RH  WIND    PRES   REMARKS
LA GRANDE       MOCLDY      31  25  78  S18     30.41S WCI 19
#COVE SCHOOL    N/A         30  26  85  CALM    30.39S
#COVE 6NW       N/A         31  26  81  SE5     30.54S
#ELGIN 3N       N/A         31  22  69  S7      30.35F
#ELGIN 1E       N/A         33  26  75  SE1     N/A
#IMBLER SCHOOL  N/A         30  25  81  S9      30.35F
#ISLAND CITY 4N N/A         43  32  65  CALM    30.30F
#LADD CYN DOT   N/A         29  26  88  S16G31  N/A    WCI 17
#UNION 1S       N/A         30  26  85  SE14    30.54F WCI 19
$$

ORZ050-150010-
WALLOWA COUNTY

CITY            SKY/WX      TMP DP  RH  WIND    PRES   REMARKS
JOSEPH AIRPORT  FRZFOG      23  21  92  CALM    30.37F VSB 1/4
#ENTERPRISE HS  N/A         25  24  96  CALM    30.43S
#IMNAHA SCHOOL  N/A         35  30  82  NW7     30.40S
#IMNAHA 10S     N/A         32  28  85  CALM    30.34S
#JOSEPH         N/A         24  19  81  CALM    30.81F
#JOSEPH 3N      N/A         23  19  84  CALM    30.35F
#JOSEPH 3W      N/A         21  21  100 CALM    30.83S
#LOSTINE        N/A         26  24  92  CALM    30.36S
#LOSTINE 3SE    N/A         25  24  96  CALM    30.42F
#MT HOWARD 8000 N/A         42  10  26  SW1     30.33S
#PROMISE 1S     N/A         26  25  96  CALM    30.63F
#WALLOWA SCHOOL N/A         28  25  88  CALM    30.35F



$$



USA.gov is the U.S. government's official web portal to all federal, state and local government web resources and services.